Location: Rounton
(54.4000°N, 1.3500°W)
Time: 21:00:57
(UTC+00:00)

A-11 Canister half - Pass Details

Date: 03 December 2021
Orbit: 1516 x 1684 km, 47.2° (Epoch: 19 January)

Event Time Altitude Azimuth Distance (km) Brightness Sun altitude
Rises 09:39:22 0° 253° (WSW) 4,816 11.5 8.1°
Reaches altitude 10° 09:42:29 10° 250° (WSW) 3,853 11.0 8.3°
Maximum altitude 09:52:04 58° 175° (S) 1,892 10.2 9.0°
Drops below altitude 10° 10:01:53 10° 100° (E) 3,946 11.8 9.7°
Sets 10:05:08 0° 97° (E) 4,938 12.1 9.9°
